Flag for U.S.A. Weather past 2 weeks in Davis, California, U.S.A.

Now
89 °F

Passing clouds.


Feels Like: 87 °F
Forecast: 61 / 92 °F
Wind: 13 mph from Southeast

Location: Sacramento International Airport

Current Time: Aug 30, 2014 at 7:45:54 PM

Latest Report: Aug 30, 2014 at 6:53 PM


Visibility: 10 mi

Pressure: 29.74 "Hg

Humidity: 28%

Dew point: 52 °F

Location of DavisLocation

Historic Weather in Davis — Graph

°F

Davis temperature yesterday

Maximum temperature yesterday: 89 °F (at 5:53 PM)
Minimum temperature yesterday: 60 °F (at 6:53 AM)
Average temperature yesterday: 73 °F

Past Weeks' High & Low Weather Summary

 TemperatureHumidityPressure
High96 °F (Aug 28, 3:53 PM)93% (Aug 23, 5:53 AM)30.04 "Hg (Aug 23, 5:53 AM)
Low52 °F (Aug 23, 6:53 AM)13% (Aug 16, 6:53 PM)29.69 "Hg (Aug 18, 6:53 PM)
Average73 °F56%29.85 "Hg
* Reported Aug 15 6:53 PM — Aug 30 6:53 PM, Davis, Weather by CustomWeather, © 2014

Note: Actual official high and low records may vary slightly from our data, if they occured in-between our weather recording intervals... More about our weather records

Advertising

Davis weather history for previous 24 hours

 ConditionsComfort  
Time TempWeatherWind HumidityBarometerVisibility
6:53 PM
Aug 30
89 °FPassing clouds.13 mph28%29.74 "Hg10 mi
5:53 PM93 °FScattered clouds.13 mph23%29.75 "Hg10 mi
4:53 PM96 °FPartly sunny.13 mph16%29.75 "Hg10 mi
3:53 PM95 °FPassing clouds.10 mph20%29.77 "Hg10 mi
2:53 PM94 °FPassing clouds.7 mph19%29.79 "Hg10 mi
1:53 PM90 °FScattered clouds.5 mph26%29.82 "Hg10 mi
12:53 PM88 °FPassing clouds.5 mph33%29.83 "Hg10 mi
11:53 AM85 °FSunny.8 mph35%29.85 "Hg10 mi
10:53 AM78 °FSunny.3 mph43%29.86 "Hg10 mi
9:53 AM74 °FPassing clouds.No wind50%29.86 "Hg10 mi
8:53 AM70 °FPassing clouds.No wind57%29.85 "Hg10 mi
7:53 AM66 °FPassing clouds.No wind68%29.85 "Hg10 mi
6:53 AM59 °FPassing clouds.No wind78%29.83 "Hg10 mi
5:53 AM60 °FClear.No wind69%29.81 "Hg10 mi
4:53 AM67 °FPassing clouds.6 mph61%29.81 "Hg10 mi
3:53 AM68 °FPassing clouds.7 mph61%29.80 "Hg10 mi
2:53 AM69 °FPassing clouds.7 mph59%29.81 "Hg10 mi
1:53 AM69 °FPassing clouds.6 mph61%29.81 "Hg10 mi
12:53 AM69 °FPassing clouds.7 mph61%29.81 "Hg10 mi
11:53 PM
Aug 29
70 °FPassing clouds.9 mph59%29.82 "Hg10 mi
10:53 PM72 °FPassing clouds.9 mph55%29.81 "Hg10 mi
9:53 PM75 °FPassing clouds.7 mph52%29.81 "Hg10 mi
8:53 PM77 °FPassing clouds.8 mph50%29.80 "Hg10 mi
7:53 PM81 °FPartly sunny.8 mph45%29.78 "Hg10 mi
Weather by CustomWeather, © 2014

See weather overviewHow to use our weather pages